Time,TemperatureF,DewpointF,PressureIn,WindDirection,WindDirectionDegrees,WindSpeedMPH,WindSpeedGustMPH,Humidity,HourlyPrecipIn,Conditions,Clouds,dailyrainin,SoftwareType,DateUTC
2013-02-18 00:00:00,17.2,2.1,29.67,West,269,18.0,18.0,51,0.00,,,0.00,Wunderground v.1.15,2013-02-18 05:00:00,
2013-02-18 00:02:00,17.2,2.6,29.67,WNW,301,17.0,18.0,52,0.00,,,0.00,Wunderground v.1.15,2013-02-18 05:02:00,
2013-02-18 00:03:00,17.2,3.0,29.67,West,281,25.0,25.0,53,0.00,,,0.00,Wunderground v.1.15,2013-02-18 05:03:00,
2013-02-18 00:08:00,17.1,2.5,29.68,WNW,284,10.0,25.0,52,0.00,,,0.00,Wunderground v.1.15,2013-02-18 05:08:00,
2013-02-18 00:14:00,17.1,2.1,29.68,SW,234,4.0,14.0,51,0.00,,,0.00,Wunderground v.1.15,2013-02-18 05:14:00,
2013-02-18 00:20:00,17.1,2.9,29.68,West,273,5.0,14.0,53,0.00,,,0.00,Wunderground v.1.15,2013-02-18 05:20:00,
2013-02-18 00:25:00,17.0,2.4,29.68,WNW,301,13.0,20.0,52,0.00,,,0.00,Wunderground v.1.15,2013-02-18 05:25:00,
2013-02-18 00:30:00,17.0,2.4,29.69,West,279,8.0,20.0,52,0.00,,,0.00,Wunderground v.1.15,2013-02-18 05:30:00,
2013-02-18 00:35:00,16.9,2.3,29.69,West,278,7.0,10.0,52,0.00,,,0.00,Wunderground v.1.15,2013-02-18 05:35:00,
2013-02-18 00:40:00,16.8,3.0,29.69,WNW,293,5.0,10.0,54,0.00,,,0.00,Wunderground v.1.15,2013-02-18 05:40:00,
2013-02-18 00:45:00,16.7,2.5,29.69,NW,312,7.0,9.0,53,0.00,,,0.00,Wunderground v.1.15,2013-02-18 05:45:00,
2013-02-18 00:51:00,16.5,2.3,29.69,WNW,300,6.0,7.0,53,0.00,,,0.00,Wunderground v.1.15,2013-02-18 05:51:00,
2013-02-18 00:56:00,16.4,2.6,29.69,WNW,300,11.0,11.0,54,0.00,,,0.00,Wunderground v.1.15,2013-02-18 05:56:00,
2013-02-18 01:01:00,16.3,2.9,29.70,WNW,302,6.0,8.0,55,0.00,,,0.00,Wunderground v.1.15,2013-02-18 06:01:00,
2013-02-18 01:06:00,16.2,2.8,29.70,WNW,299,9.0,14.0,55,0.00,,,0.00,Wunderground v.1.15,2013-02-18 06:06:00,
2013-02-18 01:12:00,16.1,2.4,29.70,West,269,4.0,10.0,54,0.00,,,0.00,Wunderground v.1.15,2013-02-18 06:12:00,
2013-02-18 01:17:00,16.0,2.7,29.70,West,270,4.0,12.0,55,0.00,,,0.00,Wunderground v.1.15,2013-02-18 06:17:00,
2013-02-18 01:22:00,15.8,2.1,29.70,West,266,9.0,20.0,54,0.00,,,0.00,Wunderground v.1.15,2013-02-18 06:22:00,
2013-02-18 01:28:00,15.8,2.5,29.70,NW,313,9.0,20.0,55,0.00,,,0.00,Wunderground v.1.15,2013-02-18 06:28:00,
2013-02-18 01:34:00,15.7,2.4,29.70,NW,318,12.0,12.0,55,0.00,,,0.00,Wunderground v.1.15,2013-02-18 06:34:00,
2013-02-18 01:39:00,15.6,2.3,29.70,West,272,7.0,14.0,55,0.00,,,0.00,Wunderground v.1.15,2013-02-18 06:39:00,
2013-02-18 01:45:00,15.5,2.2,29.71,NW,321,12.0,12.0,55,0.00,,,0.00,Wunderground v.1.15,2013-02-18 06:45:00,
2013-02-18 01:50:00,15.5,2.6,29.71,WNW,283,5.0,10.0,56,0.00,,,0.00,Wunderground v.1.15,2013-02-18 06:50:00,
2013-02-18 01:56:00,15.4,2.5,29.72,NW,308,9.0,10.0,56,0.00,,,0.00,Wunderground v.1.15,2013-02-18 06:56:00,
2013-02-18 02:01:00,15.4,2.1,29.72,West,269,3.0,14.0,55,0.00,,,0.00,Wunderground v.1.15,2013-02-18 07:01:00,
2013-02-18 02:06:00,15.4,2.5,29.72,West,266,3.0,17.0,56,0.00,,,0.00,Wunderground v.1.15,2013-02-18 07:06:00,
2013-02-18 02:11:00,15.4,2.1,29.72,NW,310,10.0,16.0,55,0.00,,,0.00,Wunderground v.1.15,2013-02-18 07:11:00,
2013-02-18 02:16:00,15.4,2.1,29.72,WSW,252,2.0,16.0,55,0.00,,,0.00,Wunderground v.1.15,2013-02-18 07:16:00,
2013-02-18 02:21:00,15.4,2.5,29.72,South,191,1.0,14.0,56,0.00,,,0.00,Wunderground v.1.15,2013-02-18 07:21:00,
2013-02-18 02:26:00,15.3,2.4,29.72,WNW,300,9.0,14.0,56,0.00,,,0.00,Wunderground v.1.15,2013-02-18 07:26:00,
2013-02-18 02:31:00,15.3,2.4,29.72,WSW,257,7.0,17.0,56,0.00,,,0.00,Wunderground v.1.15,2013-02-18 07:31:00,
2013-02-18 02:36:00,15.4,2.5,29.73,WNW,288,13.0,17.0,56,0.00,,,0.00,Wunderground v.1.15,2013-02-18 07:36:00,
2013-02-18 02:41:00,15.3,2.4,29.73,NW,311,2.0,10.0,56,0.00,,,0.00,Wunderground v.1.15,2013-02-18 07:41:00,
2013-02-18 02:46:00,15.3,2.0,29.73,NW,315,6.0,16.0,55,0.00,,,0.00,Wunderground v.1.15,2013-02-18 07:46:00,
2013-02-18 02:51:00,15.3,2.4,29.73,WSW,250,4.0,11.0,56,0.00,,,0.00,Wunderground v.1.15,2013-02-18 07:51:00,
2013-02-18 02:56:00,15.3,2.0,29.74,WNW,298,5.0,16.0,55,0.00,,,0.00,Wunderground v.1.15,2013-02-18 07:56:00,
2013-02-18 03:01:00,15.3,2.4,29.74,WNW,301,4.0,14.0,56,0.00,,,0.00,Wunderground v.1.15,2013-02-18 08:01:00,
2013-02-18 03:06:00,15.3,2.0,29.74,WNW,294,6.0,16.0,55,0.00,,,0.00,Wunderground v.1.15,2013-02-18 08:06:00,
2013-02-18 03:11:00,15.2,1.9,29.74,WNW,292,14.0,14.0,55,0.00,,,0.00,Wunderground v.1.15,2013-02-18 08:11:00,
2013-02-18 03:16:00,15.3,2.0,29.75,WNW,299,18.0,18.0,55,0.00,,,0.00,Wunderground v.1.15,2013-02-18 08:16:00,
2013-02-18 03:22:00,15.2,1.9,29.74,NW,311,5.0,9.0,55,0.00,,,0.00,Wunderground v.1.15,2013-02-18 08:22:00,
2013-02-18 03:27:00,15.3,2.0,29.75,WSW,244,5.0,20.0,55,0.00,,,0.00,Wunderground v.1.15,2013-02-18 08:27:00,
2013-02-18 03:32:00,15.3,1.6,29.75,NW,304,7.0,18.0,54,0.00,,,0.00,Wunderground v.1.15,2013-02-18 08:32:00,
2013-02-18 03:37:00,15.3,2.0,29.75,NW,320,6.0,19.0,55,0.00,,,0.00,Wunderground v.1.15,2013-02-18 08:37:00,
2013-02-18 03:42:00,15.3,1.6,29.75,WNW,302,9.0,18.0,54,0.00,,,0.00,Wunderground v.1.15,2013-02-18 08:42:00,
2013-02-18 03:47:00,15.3,1.6,29.76,WSW,251,4.0,19.0,54,0.00,,,0.00,Wunderground v.1.15,2013-02-18 08:47:00,
2013-02-18 03:52:00,15.3,1.6,29.77,NNW,330,13.0,23.0,54,0.00,,,0.00,Wunderground v.1.15,2013-02-18 08:52:00,
2013-02-18 03:57:00,15.3,2.0,29.77,NW,304,12.0,23.0,55,0.00,,,0.00,Wunderground v.1.15,2013-02-18 08:57:00,
2013-02-18 04:02:00,15.3,1.6,29.77,West,276,5.0,15.0,54,0.00,,,0.00,Wunderground v.1.15,2013-02-18 09:02:00,
2013-02-18 04:07:00,15.2,1.9,29.77,West,279,10.0,15.0,55,0.00,,,0.00,Wunderground v.1.15,2013-02-18 09:07:00,
2013-02-18 04:12:00,15.3,1.6,29.77,WNW,293,7.0,17.0,54,0.00,,,0.00,Wunderground v.1.15,2013-02-18 09:12:00,
2013-02-18 04:17:00,15.3,1.6,29.78,WNW,284,8.0,17.0,54,0.00,,,0.00,Wunderground v.1.15,2013-02-18 09:17:00,
2013-02-18 04:22:00,15.3,2.0,29.78,West,271,10.0,14.0,55,0.00,,,0.00,Wunderground v.1.15,2013-02-18 09:22:00,
2013-02-18 04:27:00,15.2,1.5,29.78,NW,305,12.0,17.0,54,0.00,,,0.00,Wunderground v.1.15,2013-02-18 09:27:00,
2013-02-18 04:32:00,15.3,1.6,29.79,WNW,284,12.0,13.0,54,0.00,,,0.00,Wunderground v.1.15,2013-02-18 09:32:00,
2013-02-18 04:37:00,15.3,1.6,29.79,NW,307,12.0,16.0,54,0.00,,,0.00,Wunderground v.1.15,2013-02-18 09:37:00,
2013-02-18 04:42:00,15.4,1.7,29.80,WNW,294,4.0,19.0,54,0.00,,,0.00,Wunderground v.1.15,2013-02-18 09:42:00,
2013-02-18 04:47:00,15.4,1.7,29.80,NW,304,2.0,19.0,54,0.00,,,0.00,Wunderground v.1.15,2013-02-18 09:47:00,
2013-02-18 04:52:00,15.4,1.7,29.81,WNW,298,4.0,17.0,54,0.00,,,0.00,Wunderground v.1.15,2013-02-18 09:52:00,
2013-02-18 04:57:00,15.4,1.7,29.81,NW,312,8.0,17.0,54,0.00,,,0.00,Wunderground v.1.15,2013-02-18 09:57:00,
2013-02-18 05:02:00,15.4,1.7,29.81,NNE,29,4.0,12.0,54,0.00,,,0.00,Wunderground v.1.15,2013-02-18 10:02:00,
2013-02-18 05:07:00,15.4,2.1,29.81,NW,317,12.0,16.0,55,0.00,,,0.00,Wunderground v.1.15,2013-02-18 10:07:00,
2013-02-18 05:12:00,15.4,1.7,29.81,NW,311,4.0,13.0,54,0.00,,,0.00,Wunderground v.1.15,2013-02-18 10:12:00,
2013-02-18 05:17:00,15.3,1.6,29.82,West,281,4.0,13.0,54,0.00,,,0.00,Wunderground v.1.15,2013-02-18 10:17:00,
2013-02-18 05:22:00,15.3,1.6,29.82,NW,317,9.0,10.0,54,0.00,,,0.00,Wunderground v.1.15,2013-02-18 10:22:00,
2013-02-18 05:27:00,15.2,1.9,29.83,WNW,300,9.0,12.0,55,0.00,,,0.00,Wunderground v.1.15,2013-02-18 10:27:00,
2013-02-18 05:33:00,15.2,1.5,29.83,NW,311,4.0,14.0,54,0.00,,,0.00,Wunderground v.1.15,2013-02-18 10:33:00,
2013-02-18 05:38:00,15.2,1.9,29.83,NW,315,6.0,14.0,55,0.00,,,0.00,Wunderground v.1.15,2013-02-18 10:38:00,
2013-02-18 05:43:00,15.1,1.8,29.84,SW,219,0.0,8.0,55,0.00,,,0.00,Wunderground v.1.15,2013-02-18 10:43:00,
2013-02-18 05:48:00,15.1,1.8,29.84,WNW,288,1.0,9.0,55,0.00,,,0.00,Wunderground v.1.15,2013-02-18 10:48:00,
2013-02-18 05:53:00,15.1,1.8,29.84,WNW,287,6.0,15.0,55,0.00,,,0.00,Wunderground v.1.15,2013-02-18 10:53:00,
2013-02-18 05:58:00,15.1,1.8,29.85,West,276,1.0,15.0,55,0.00,,,0.00,Wunderground v.1.15,2013-02-18 10:58:00,
2013-02-18 06:03:00,15.0,1.7,29.84,WNW,294,5.0,15.0,55,0.00,,,0.00,Wunderground v.1.15,2013-02-18 11:03:00,
2013-02-18 06:08:00,14.9,2.0,29.85,NW,307,6.0,15.0,56,0.00,,,0.00,Wunderground v.1.15,2013-02-18 11:08:00,
2013-02-18 06:13:00,15.0,1.7,29.85,NNW,333,6.0,14.0,55,0.00,,,0.00,Wunderground v.1.15,2013-02-18 11:13:00,
2013-02-18 06:18:00,15.0,2.1,29.85,SW,236,6.0,17.0,56,0.00,,,0.00,Wunderground v.1.15,2013-02-18 11:18:00,
2013-02-18 06:23:00,15.1,1.8,29.86,WNW,302,7.0,16.0,55,0.00,,,0.00,Wunderground v.1.15,2013-02-18 11:23:00,
2013-02-18 06:28:00,15.1,1.8,29.86,West,264,11.0,16.0,55,0.00,,,0.00,Wunderground v.1.15,2013-02-18 11:28:00,
2013-02-18 06:33:00,15.1,1.8,29.87,WNW,282,5.0,11.0,55,0.00,,,0.00,Wunderground v.1.15,2013-02-18 11:33:00,
2013-02-18 06:39:00,15.1,1.8,29.88,WNW,302,6.0,12.0,55,0.00,,,0.00,Wunderground v.1.15,2013-02-18 11:39:00,
2013-02-18 06:44:00,15.1,1.8,29.88,NW,324,6.0,18.0,55,0.00,,,0.00,Wunderground v.1.15,2013-02-18 11:44:00,
2013-02-18 06:49:00,15.1,1.8,29.89,WNW,291,8.0,18.0,55,0.00,,,0.00,Wunderground v.1.15,2013-02-18 11:49:00,
2013-02-18 06:54:00,15.1,1.8,29.89,NW,311,17.0,17.0,55,0.00,,,0.00,Wunderground v.1.15,2013-02-18 11:54:00,
2013-02-18 06:59:00,15.1,1.8,29.89,NW,315,8.0,17.0,55,0.00,,,0.00,Wunderground v.1.15,2013-02-18 11:59:00,
2013-02-18 07:04:00,15.0,1.7,29.90,WNW,302,9.0,13.0,55,0.00,,,0.00,Wunderground v.1.15,2013-02-18 12:04:00,
2013-02-18 07:09:00,15.0,1.7,29.90,WNW,296,12.0,13.0,55,0.00,,,0.00,Wunderground v.1.15,2013-02-18 12:09:00,
2013-02-18 07:15:00,15.0,1.7,29.90,WNW,302,12.0,19.0,55,0.00,,,0.00,Wunderground v.1.15,2013-02-18 12:15:00,
2013-02-18 07:20:00,15.1,2.2,29.91,NW,315,8.0,8.0,56,0.00,,,0.00,Wunderground v.1.15,2013-02-18 12:20:00,
2013-02-18 07:25:00,15.2,1.9,29.91,NW,309,13.0,14.0,55,0.00,,,0.00,Wunderground v.1.15,2013-02-18 12:25:00,
2013-02-18 07:30:00,15.4,2.1,29.91,NW,311,3.0,8.0,55,0.00,,,0.00,Wunderground v.1.15,2013-02-18 12:30:00,
2013-02-18 07:35:00,15.5,1.8,29.92,West,281,4.0,12.0,54,0.00,,,0.00,Wunderground v.1.15,2013-02-18 12:35:00,
2013-02-18 07:40:00,15.6,2.3,29.92,WNW,284,5.0,12.0,55,0.00,,,0.00,Wunderground v.1.15,2013-02-18 12:40:00,
2013-02-18 07:45:00,15.8,2.1,29.92,West,270,3.0,17.0,54,0.00,,,0.00,Wunderground v.1.15,2013-02-18 12:45:00,
2013-02-18 07:50:00,15.9,2.2,29.92,NW,314,9.0,14.0,54,0.00,,,0.00,Wunderground v.1.15,2013-02-18 12:50:00,
2013-02-18 07:55:00,16.1,2.4,29.92,NW,310,16.0,17.0,54,0.00,,,0.00,Wunderground v.1.15,2013-02-18 12:55:00,
2013-02-18 08:00:00,16.2,2.0,29.92,West,271,4.0,9.0,53,0.00,,,0.00,Wunderground v.1.15,2013-02-18 13:00:00,
2013-02-18 08:05:00,16.4,2.6,29.92,WNW,289,6.0,15.0,54,0.00,,,0.00,Wunderground v.1.15,2013-02-18 13:05:00,
2013-02-18 08:10:00,16.7,2.5,29.93,West,273,6.0,10.0,53,0.00,,,0.00,Wunderground v.1.15,2013-02-18 13:10:00,
2013-02-18 08:15:00,16.9,2.7,29.94,WNW,284,7.0,17.0,53,0.00,,,0.00,Wunderground v.1.15,2013-02-18 13:15:00,
2013-02-18 08:20:00,17.1,2.9,29.94,WNW,295,8.0,8.0,53,0.00,,,0.00,Wunderground v.1.15,2013-02-18 13:20:00,
2013-02-18 08:25:00,17.4,2.8,29.94,WNW,288,4.0,10.0,52,0.00,,,0.00,Wunderground v.1.15,2013-02-18 13:25:00,
2013-02-18 08:30:00,17.7,2.6,29.94,NW,313,11.0,17.0,51,0.00,,,0.00,Wunderground v.1.15,2013-02-18 13:30:00,
2013-02-18 08:35:00,18.0,3.3,29.94,NW,317,3.0,17.0,52,0.00,,,0.00,Wunderground v.1.15,2013-02-18 13:35:00,
2013-02-18 08:40:00,18.2,2.6,29.94,North,355,9.0,10.0,50,0.00,,,0.00,Wunderground v.1.15,2013-02-18 13:40:00,
2013-02-18 08:45:00,18.6,3.4,29.94,NW,307,9.0,19.0,51,0.00,,,0.00,Wunderground v.1.15,2013-02-18 13:45:00,
2013-02-18 08:50:00,18.9,3.3,29.94,NW,318,6.0,15.0,50,0.00,,,0.00,Wunderground v.1.15,2013-02-18 13:50:00,
2013-02-18 08:55:00,19.2,3.6,29.95,WNW,300,5.0,15.0,50,0.00,,,0.00,Wunderground v.1.15,2013-02-18 13:55:00,
2013-02-18 09:00:00,19.5,3.9,29.96,West,281,9.0,11.0,50,0.00,,,0.00,Wunderground v.1.15,2013-02-18 14:00:00,
2013-02-18 09:05:00,19.8,3.7,29.95,West,269,3.0,17.0,49,0.00,,,0.00,Wunderground v.1.15,2013-02-18 14:05:00,
2013-02-18 09:10:00,19.8,3.7,29.96,NW,307,8.0,13.0,49,0.00,,,0.00,Wunderground v.1.15,2013-02-18 14:10:00,
2013-02-18 09:15:00,20.0,3.9,29.96,NW,304,1.0,15.0,49,0.00,,,0.00,Wunderground v.1.15,2013-02-18 14:15:00,
2013-02-18 09:21:00,20.4,3.8,29.97,WSW,258,8.0,8.0,48,0.00,,,0.00,Wunderground v.1.15,2013-02-18 14:21:00,
2013-02-18 09:26:00,20.3,3.7,29.97,West,280,9.0,18.0,48,0.00,,,0.00,Wunderground v.1.15,2013-02-18 14:26:00,
2013-02-18 09:31:00,20.5,3.9,29.96,WNW,285,6.0,10.0,48,0.00,,,0.00,Wunderground v.1.15,2013-02-18 14:31:00,
2013-02-18 09:36:00,20.8,4.2,29.97,NW,323,12.0,22.0,48,0.00,,,0.00,Wunderground v.1.15,2013-02-18 14:36:00,
2013-02-18 09:41:00,21.0,3.9,29.97,West,270,8.0,12.0,47,0.00,,,0.00,Wunderground v.1.15,2013-02-18 14:41:00,
2013-02-18 09:46:00,21.3,3.7,29.96,WNW,298,10.0,17.0,46,0.00,,,0.00,Wunderground v.1.15,2013-02-18 14:46:00,
2013-02-18 09:51:00,21.7,4.5,29.96,WNW,303,13.0,15.0,47,0.00,,,0.00,Wunderground v.1.15,2013-02-18 14:51:00,
2013-02-18 09:56:00,22.0,3.9,29.96,NW,306,3.0,15.0,45,0.00,,,0.00,Wunderground v.1.15,2013-02-18 14:56:00,
2013-02-18 10:01:00,22.4,4.2,29.96,West,267,5.0,14.0,45,0.00,,,0.00,Wunderground v.1.15,2013-02-18 15:01:00,
2013-02-18 10:06:00,22.6,4.4,29.96,NW,311,5.0,14.0,45,0.00,,,0.00,Wunderground v.1.15,2013-02-18 15:06:00,
2013-02-18 10:11:00,22.7,4.0,29.96,WNW,298,6.0,13.0,44,0.00,,,0.00,Wunderground v.1.15,2013-02-18 15:11:00,
2013-02-18 10:16:00,22.9,4.7,29.96,WNW,292,14.0,19.0,45,0.00,,,0.00,Wunderground v.1.15,2013-02-18 15:16:00,
2013-02-18 10:21:00,22.9,4.2,29.96,NW,317,23.0,23.0,44,0.00,,,0.00,Wunderground v.1.15,2013-02-18 15:21:00,
2013-02-18 10:26:00,22.9,4.2,29.97,West,261,13.0,23.0,44,0.00,,,0.00,Wunderground v.1.15,2013-02-18 15:26:00,
2013-02-18 10:31:00,23.0,4.3,29.97,West,277,9.0,17.0,44,0.00,,,0.00,Wunderground v.1.15,2013-02-18 15:31:00,
2013-02-18 10:36:00,23.4,4.7,29.97,NW,321,8.0,17.0,44,0.00,,,0.00,Wunderground v.1.15,2013-02-18 15:36:00,
2013-02-18 10:41:00,23.8,5.0,29.97,WNW,282,8.0,9.0,44,0.00,,,0.00,Wunderground v.1.15,2013-02-18 15:41:00,
2013-02-18 10:46:00,24.2,4.9,29.97,WNW,286,9.0,15.0,43,0.00,,,0.00,Wunderground v.1.15,2013-02-18 15:46:00,
2013-02-18 10:51:00,24.5,4.6,29.98,West,273,7.0,10.0,42,0.00,,,0.00,Wunderground v.1.15,2013-02-18 15:51:00,
2013-02-18 10:56:00,24.4,4.6,29.97,NW,324,13.0,22.0,42,0.00,,,0.00,Wunderground v.1.15,2013-02-18 15:56:00,
2013-02-18 11:02:00,24.8,4.4,29.97,NNW,327,21.0,21.0,41,0.00,,,0.00,Wunderground v.1.15,2013-02-18 16:02:00,
2013-02-18 11:07:00,25.1,5.2,29.97,WSW,255,3.0,21.0,42,0.00,,,0.00,Wunderground v.1.15,2013-02-18 16:07:00,
2013-02-18 11:12:00,25.5,4.5,29.97,WNW,284,2.0,11.0,40,0.00,,,0.00,Wunderground v.1.15,2013-02-18 16:12:00,
2013-02-18 11:17:00,25.8,5.3,29.97,WNW,282,8.0,15.0,41,0.00,,,0.00,Wunderground v.1.15,2013-02-18 16:17:00,
2013-02-18 11:22:00,26.2,4.0,29.98,WNW,288,11.0,14.0,38,0.00,,,0.00,Wunderground v.1.15,2013-02-18 16:22:00,
2013-02-18 11:27:00,26.3,4.7,29.98,WNW,299,6.0,16.0,39,0.00,,,0.00,Wunderground v.1.15,2013-02-18 16:27:00,
2013-02-18 11:32:00,26.7,5.0,29.98,NW,324,10.0,10.0,39,0.00,,,0.00,Wunderground v.1.15,2013-02-18 16:32:00,
2013-02-18 11:37:00,27.2,5.5,29.98,WSW,238,3.0,12.0,39,0.00,,,0.00,Wunderground v.1.15,2013-02-18 16:37:00,
2013-02-18 11:42:00,27.6,5.8,29.98,WNW,292,8.0,8.0,39,0.00,,,0.00,Wunderground v.1.15,2013-02-18 16:42:00,
2013-02-18 11:47:00,27.9,6.1,29.98,NW,315,8.0,11.0,39,0.00,,,0.00,Wunderground v.1.15,2013-02-18 16:47:00,
2013-02-18 11:52:00,28.1,5.7,29.98,NNW,338,5.0,12.0,38,0.00,,,0.00,Wunderground v.1.15,2013-02-18 16:52:00,
2013-02-18 11:57:00,28.4,5.4,29.98,WNW,296,2.0,12.0,37,0.00,,,0.00,Wunderground v.1.15,2013-02-18 16:57:00,
2013-02-18 12:02:00,28.6,5.6,29.99,WNW,296,3.0,11.0,37,0.00,,,0.00,Wunderground v.1.15,2013-02-18 17:02:00,
2013-02-18 12:07:00,28.9,5.2,29.99,WNW,291,10.0,14.0,36,0.00,,,0.00,Wunderground v.1.15,2013-02-18 17:07:00,
2013-02-18 12:12:00,28.8,5.2,29.99,WNW,290,2.0,17.0,36,0.00,,,0.00,Wunderground v.1.15,2013-02-18 17:12:00,
2013-02-18 12:17:00,29.0,4.7,29.98,WNW,301,10.0,17.0,35,0.00,,,0.00,Wunderground v.1.15,2013-02-18 17:17:00,
2013-02-18 12:22:00,28.7,3.8,29.99,NNW,329,9.0,22.0,34,0.00,,,0.00,Wunderground v.1.15,2013-02-18 17:22:00,
2013-02-18 12:27:00,28.6,4.4,29.99,WNW,297,6.0,22.0,35,0.00,,,0.00,Wunderground v.1.15,2013-02-18 17:27:00,
2013-02-18 12:32:00,28.7,4.5,29.99,NW,321,12.0,12.0,35,0.00,,,0.00,Wunderground v.1.15,2013-02-18 17:32:00,
2013-02-18 12:38:00,28.7,3.2,30.00,WSW,253,2.0,20.0,33,0.00,,,0.00,Wunderground v.1.15,2013-02-18 17:38:00,
2013-02-18 12:43:00,28.9,4.0,30.00,West,276,8.0,17.0,34,0.00,,,0.00,Wunderground v.1.15,2013-02-18 17:43:00,
2013-02-18 12:48:00,28.9,4.0,30.00,NW,310,5.0,18.0,34,0.00,,,0.00,Wunderground v.1.15,2013-02-18 17:48:00,
2013-02-18 12:53:00,29.2,2.9,29.99,NW,321,9.0,16.0,32,0.00,,,0.00,Wunderground v.1.15,2013-02-18 17:53:00,
2013-02-18 12:58:00,29.2,2.9,30.00,WNW,297,7.0,19.0,32,0.00,,,0.00,Wunderground v.1.15,2013-02-18 17:58:00,
2013-02-18 13:03:00,29.7,4.1,29.99,West,266,8.0,13.0,33,0.00,,,0.00,Wunderground v.1.15,2013-02-18 18:03:00,
2013-02-18 13:08:00,30.0,5.0,29.99,West,267,3.0,13.0,34,0.00,,,0.00,Wunderground v.1.15,2013-02-18 18:08:00,
2013-02-18 13:13:00,30.2,3.8,30.00,North,355,3.0,15.0,32,0.00,,,0.00,Wunderground v.1.15,2013-02-18 18:13:00,
2013-02-18 13:18:00,30.2,4.5,30.00,WSW,238,5.0,18.0,33,0.00,,,0.00,Wunderground v.1.15,2013-02-18 18:18:00,
2013-02-18 13:23:00,30.1,3.1,30.00,NW,323,3.0,15.0,31,0.00,,,0.00,Wunderground v.1.15,2013-02-18 18:23:00,
2013-02-18 13:28:00,30.1,3.7,30.00,WNW,288,5.0,20.0,32,0.00,,,0.00,Wunderground v.1.15,2013-02-18 18:28:00,
2013-02-18 13:33:00,30.1,4.4,30.00,WNW,300,8.0,13.0,33,0.00,,,0.00,Wunderground v.1.15,2013-02-18 18:33:00,
2013-02-18 13:38:00,29.9,3.6,30.01,NW,313,9.0,17.0,32,0.00,,,0.00,Wunderground v.1.15,2013-02-18 18:38:00,
2013-02-18 13:43:00,30.0,3.0,30.01,NNW,333,5.0,18.0,31,0.00,,,0.00,Wunderground v.1.15,2013-02-18 18:43:00,
2013-02-18 13:48:00,30.2,3.1,30.01,NW,320,9.0,18.0,31,0.00,,,0.00,Wunderground v.1.15,2013-02-18 18:48:00,
2013-02-18 13:53:00,30.3,3.9,30.01,NW,312,16.0,16.0,32,0.00,,,0.00,Wunderground v.1.15,2013-02-18 18:53:00,
2013-02-18 13:58:00,30.2,2.4,30.01,SW,215,2.0,16.0,30,0.00,,,0.00,Wunderground v.1.15,2013-02-18 18:58:00,
2013-02-18 14:03:00,30.3,2.5,30.01,WNW,282,4.0,18.0,30,0.00,,,0.00,Wunderground v.1.15,2013-02-18 19:03:00,
2013-02-18 14:08:00,30.3,3.9,30.01,West,267,10.0,18.0,32,0.00,,,0.00,Wunderground v.1.15,2013-02-18 19:08:00,
2013-02-18 14:13:00,30.1,1.6,30.01,NNW,334,3.0,14.0,29,0.00,,,0.00,Wunderground v.1.15,2013-02-18 19:13:00,
2013-02-18 14:19:00,30.1,2.3,30.01,NW,307,7.0,14.0,30,0.00,,,0.00,Wunderground v.1.15,2013-02-18 19:19:00,
2013-02-18 14:24:00,30.2,2.4,30.01,West,275,6.0,15.0,30,0.00,,,0.00,Wunderground v.1.15,2013-02-18 19:24:00,
2013-02-18 14:29:00,30.5,2.7,30.01,WNW,288,5.0,15.0,30,0.00,,,0.00,Wunderground v.1.15,2013-02-18 19:29:00,
2013-02-18 14:34:00,30.6,2.8,30.02,NW,323,11.0,11.0,30,0.00,,,0.00,Wunderground v.1.15,2013-02-18 19:34:00,
2013-02-18 14:40:00,30.3,3.2,30.02,West,260,1.0,16.0,31,0.00,,,0.00,Wunderground v.1.15,2013-02-18 19:40:00,
2013-02-18 14:45:00,30.2,2.4,30.02,NW,304,8.0,21.0,30,0.00,,,0.00,Wunderground v.1.15,2013-02-18 19:45:00,
2013-02-18 14:50:00,30.1,1.6,30.02,NW,316,4.0,21.0,29,0.00,,,0.00,Wunderground v.1.15,2013-02-18 19:50:00,
2013-02-18 14:55:00,30.0,1.5,30.02,WNW,303,7.0,15.0,29,0.00,,,0.00,Wunderground v.1.15,2013-02-18 19:55:00,
2013-02-18 15:00:00,30.0,2.3,30.02,WNW,282,5.0,15.0,30,0.00,,,0.00,Wunderground v.1.15,2013-02-18 20:00:00,
2013-02-18 15:05:00,29.9,1.4,30.02,WNW,295,4.0,11.0,29,0.00,,,0.00,Wunderground v.1.15,2013-02-18 20:05:00,
2013-02-18 15:10:00,29.8,1.4,30.02,West,259,6.0,6.0,29,0.00,,,0.00,Wunderground v.1.15,2013-02-18 20:10:00,
2013-02-18 15:15:00,29.9,1.4,30.03,North,360,3.0,10.0,29,0.00,,,0.00,Wunderground v.1.15,2013-02-18 20:15:00,
2013-02-18 15:20:00,29.9,1.4,30.03,WNW,292,8.0,8.0,29,0.00,,,0.00,Wunderground v.1.15,2013-02-18 20:20:00,
2013-02-18 15:25:00,29.7,2.0,30.02,WNW,289,4.0,16.0,30,0.00,,,0.00,Wunderground v.1.15,2013-02-18 20:25:00,
2013-02-18 15:30:00,29.9,1.4,30.03,WNW,303,8.0,10.0,29,0.00,,,0.00,Wunderground v.1.15,2013-02-18 20:30:00,
2013-02-18 15:35:00,29.9,-0.1,30.03,NNW,327,7.0,14.0,27,0.00,,,0.00,Wunderground v.1.15,2013-02-18 20:35:00,
2013-02-18 15:40:00,29.8,0.6,30.03,West,265,0.0,6.0,28,0.00,,,0.00,Wunderground v.1.15,2013-02-18 20:40:00,
2013-02-18 15:45:00,29.9,1.4,30.03,West,273,2.0,12.0,29,0.00,,,0.00,Wunderground v.1.15,2013-02-18 20:45:00,
2013-02-18 15:50:00,29.8,2.1,30.03,SSE,155,2.0,4.0,30,0.00,,,0.00,Wunderground v.1.15,2013-02-18 20:50:00,
2013-02-18 15:55:00,29.9,2.2,30.03,West,273,6.0,7.0,30,0.00,,,0.00,Wunderground v.1.15,2013-02-18 20:55:00,
2013-02-18 16:00:00,29.7,2.7,30.04,WNW,292,1.0,5.0,31,0.00,,,0.00,Wunderground v.1.15,2013-02-18 21:00:00,
2013-02-18 16:05:00,29.6,1.9,30.04,WNW,301,4.0,10.0,30,0.00,,,0.00,Wunderground v.1.15,2013-02-18 21:05:00,
2013-02-18 16:10:00,29.4,2.4,30.04,NNW,344,2.0,4.0,31,0.00,,,0.00,Wunderground v.1.15,2013-02-18 21:10:00,
2013-02-18 16:15:00,29.3,1.6,30.05,WSW,257,7.0,8.0,30,0.00,,,0.00,Wunderground v.1.15,2013-02-18 21:15:00,
2013-02-18 16:20:00,29.3,0.9,30.04,NW,305,1.0,4.0,29,0.00,,,0.00,Wunderground v.1.15,2013-02-18 21:20:00,
2013-02-18 16:25:00,29.2,2.3,30.05,North,9,4.0,7.0,31,0.00,,,0.00,Wunderground v.1.15,2013-02-18 21:25:00,
2013-02-18 16:30:00,29.2,0.8,30.05,WSW,244,1.0,7.0,29,0.00,,,0.00,Wunderground v.1.15,2013-02-18 21:30:00,
2013-02-18 16:36:00,29.1,0.0,30.06,WNW,300,4.0,11.0,28,0.00,,,0.00,Wunderground v.1.15,2013-02-18 21:36:00,
2013-02-18 16:41:00,29.0,1.4,30.06,WSW,242,2.0,6.0,30,0.00,,,0.00,Wunderground v.1.15,2013-02-18 21:41:00,
2013-02-18 16:46:00,28.9,1.3,30.06,NW,306,3.0,10.0,30,0.00,,,0.00,Wunderground v.1.15,2013-02-18 21:46:00,
2013-02-18 16:51:00,28.8,1.2,30.07,NW,315,6.0,6.0,30,0.00,,,0.00,Wunderground v.1.15,2013-02-18 21:51:00,
2013-02-18 16:56:00,28.6,1.7,30.07,West,259,2.0,9.0,31,0.00,,,0.00,Wunderground v.1.15,2013-02-18 21:56:00,
2013-02-18 17:01:00,28.5,2.3,30.07,WNW,298,0.0,3.0,32,0.00,,,0.00,Wunderground v.1.15,2013-02-18 22:01:00,
2013-02-18 17:06:00,28.5,1.6,30.07,NW,307,3.0,7.0,31,0.00,,,0.00,Wunderground v.1.15,2013-02-18 22:06:00,
2013-02-18 17:11:00,28.3,2.2,30.07,WNW,286,2.0,8.0,32,0.00,,,0.00,Wunderground v.1.15,2013-02-18 22:11:00,
2013-02-18 17:16:00,28.2,1.4,30.07,NW,324,3.0,8.0,31,0.00,,,0.00,Wunderground v.1.15,2013-02-18 22:16:00,
2013-02-18 17:21:00,27.9,2.5,30.08,SW,236,3.0,4.0,33,0.00,,,0.00,Wunderground v.1.15,2013-02-18 22:21:00,
2013-02-18 17:26:00,27.9,2.5,30.08,WSW,254,3.0,9.0,33,0.00,,,0.00,Wunderground v.1.15,2013-02-18 22:26:00,
2013-02-18 17:31:00,27.7,2.3,30.08,West,275,0.0,2.0,33,0.00,,,0.00,Wunderground v.1.15,2013-02-18 22:31:00,
2013-02-18 17:37:00,27.5,2.1,30.09,NW,307,2.0,3.0,33,0.00,,,0.00,Wunderground v.1.15,2013-02-18 22:37:00,
2013-02-18 17:42:00,27.3,2.6,30.09,WNW,286,1.0,2.0,34,0.00,,,0.00,Wunderground v.1.15,2013-02-18 22:42:00,
2013-02-18 17:47:00,27.2,2.5,30.09,WNW,296,2.0,6.0,34,0.00,,,0.00,Wunderground v.1.15,2013-02-18 22:47:00,
2013-02-18 17:52:00,27.2,1.8,30.09,West,267,1.0,3.0,33,0.00,,,0.00,Wunderground v.1.15,2013-02-18 22:52:00,
2013-02-18 17:57:00,27.2,1.8,30.09,West,272,2.0,4.0,33,0.00,,,0.00,Wunderground v.1.15,2013-02-18 22:57:00,
2013-02-18 18:02:00,27.1,2.4,30.09,WNW,286,0.0,3.0,34,0.00,,,0.00,Wunderground v.1.15,2013-02-18 23:02:00,
2013-02-18 18:07:00,27.0,2.9,30.09,WSW,254,2.0,3.0,35,0.00,,,0.00,Wunderground v.1.15,2013-02-18 23:07:00,
2013-02-18 18:13:00,26.8,3.4,30.09,SW,234,1.0,3.0,36,0.00,,,0.00,Wunderground v.1.15,2013-02-18 23:13:00,
2013-02-18 18:18:00,26.8,3.4,30.10,West,259,2.0,6.0,36,0.00,,,0.00,Wunderground v.1.15,2013-02-18 23:18:00,
2013-02-18 18:23:00,26.7,3.9,30.10,SSW,210,3.0,4.0,37,0.00,,,0.00,Wunderground v.1.15,2013-02-18 23:23:00,
2013-02-18 18:28:00,26.5,3.1,30.10,WNW,291,8.0,10.0,36,0.00,,,0.00,Wunderground v.1.15,2013-02-18 23:28:00,
2013-02-18 18:33:00,26.7,2.0,30.10,WSW,248,0.0,2.0,34,0.00,,,0.00,Wunderground v.1.15,2013-02-18 23:33:00,
2013-02-18 18:38:00,26.7,2.0,30.11,SSE,152,0.0,5.0,34,0.00,,,0.00,Wunderground v.1.15,2013-02-18 23:38:00,
2013-02-18 18:43:00,26.7,3.3,30.11,WNW,284,0.0,2.0,36,0.00,,,0.00,Wunderground v.1.15,2013-02-18 23:43:00,
2013-02-18 18:48:00,26.6,2.6,30.11,WNW,296,0.0,2.0,35,0.00,,,0.00,Wunderground v.1.15,2013-02-18 23:48:00,
2013-02-18 18:53:00,26.4,3.0,30.11,SW,221,0.0,3.0,36,0.00,,,0.00,Wunderground v.1.15,2013-02-18 23:53:00,
2013-02-18 18:58:00,26.2,2.8,30.12,SW,221,1.0,3.0,36,0.00,,,0.00,Wunderground v.1.15,2013-02-18 23:58:00,
2013-02-18 19:03:00,26.0,3.8,30.12,West,264,1.0,2.0,38,0.00,,,0.00,Wunderground v.1.15,2013-02-19 00:03:00,
2013-02-18 19:08:00,25.8,4.2,30.12,West,264,1.0,2.0,39,0.00,,,0.00,Wunderground v.1.15,2013-02-19 00:08:00,
2013-02-18 19:13:00,25.7,5.7,30.12,West,264,0.0,0.0,42,0.00,,,0.00,Wunderground v.1.15,2013-02-19 00:13:00,
2013-02-18 19:18:00,25.4,3.8,30.12,SW,223,1.0,2.0,39,0.00,,,0.00,Wunderground v.1.15,2013-02-19 00:18:00,
2013-02-18 19:23:00,25.5,3.9,30.12,ESE,121,0.0,2.0,39,0.00,,,0.00,Wunderground v.1.15,2013-02-19 00:23:00,
2013-02-18 19:28:00,25.4,4.4,30.12,SW,221,1.0,4.0,40,0.00,,,0.00,Wunderground v.1.15,2013-02-19 00:28:00,
2013-02-18 19:33:00,25.4,3.3,30.12,SW,223,0.0,3.0,38,0.00,,,0.00,Wunderground v.1.15,2013-02-19 00:33:00,
2013-02-18 19:38:00,25.5,3.4,30.12,SSW,202,0.0,4.0,38,0.00,,,0.00,Wunderground v.1.15,2013-02-19 00:38:00,
2013-02-18 19:43:00,25.4,3.3,30.13,WNW,288,0.0,3.0,38,0.00,,,0.00,Wunderground v.1.15,2013-02-19 00:43:00,
2013-02-18 19:48:00,25.4,3.3,30.13,WSW,254,0.0,5.0,38,0.00,,,0.00,Wunderground v.1.15,2013-02-19 00:48:00,
2013-02-18 19:53:00,25.5,3.4,30.13,West,271,2.0,4.0,38,0.00,,,0.00,Wunderground v.1.15,2013-02-19 00:53:00,
2013-02-18 19:58:00,25.5,3.4,30.14,West,272,0.0,4.0,38,0.00,,,0.00,Wunderground v.1.15,2013-02-19 00:58:00,
2013-02-18 20:03:00,25.3,3.8,30.13,SW,223,0.0,3.0,39,0.00,,,0.00,Wunderground v.1.15,2013-02-19 01:03:00,
2013-02-18 20:08:00,25.2,3.7,30.13,SW,223,0.0,3.0,39,0.00,,,0.00,Wunderground v.1.15,2013-02-19 01:08:00,
2013-02-18 20:14:00,25.0,3.5,30.13,SW,223,0.0,1.0,39,0.00,,,0.00,Wunderground v.1.15,2013-02-19 01:14:00,
2013-02-18 20:19:00,24.9,3.4,30.13,SW,223,1.0,2.0,39,0.00,,,0.00,Wunderground v.1.15,2013-02-19 01:19:00,
2013-02-18 20:24:00,24.8,3.3,30.13,SW,223,0.0,1.0,39,0.00,,,0.00,Wunderground v.1.15,2013-02-19 01:24:00,
2013-02-18 20:29:00,24.7,3.8,30.13,WNW,283,2.0,4.0,40,0.00,,,0.00,Wunderground v.1.15,2013-02-19 01:29:00,
2013-02-18 20:34:00,24.6,3.7,30.14,WSW,242,1.0,4.0,40,0.00,,,0.00,Wunderground v.1.15,2013-02-19 01:34:00,
2013-02-18 20:39:00,24.5,3.6,30.14,West,273,3.0,5.0,40,0.00,,,0.00,Wunderground v.1.15,2013-02-19 01:39:00,
2013-02-18 20:44:00,24.6,3.7,30.14,West,279,0.0,3.0,40,0.00,,,0.00,Wunderground v.1.15,2013-02-19 01:44:00,
2013-02-18 20:49:00,24.6,3.7,30.14,WSW,240,0.0,3.0,40,0.00,,,0.00,Wunderground v.1.15,2013-02-19 01:49:00,
2013-02-18 20:54:00,24.6,3.1,30.15,WSW,238,0.0,2.0,39,0.00,,,0.00,Wunderground v.1.15,2013-02-19 01:54:00,
2013-02-18 20:59:00,24.6,3.7,30.15,WNW,282,1.0,3.0,40,0.00,,,0.00,Wunderground v.1.15,2013-02-19 01:59:00,
2013-02-18 21:04:00,24.5,3.6,30.15,SSW,203,0.0,3.0,40,0.00,,,0.00,Wunderground v.1.15,2013-02-19 02:04:00,
2013-02-18 21:09:00,24.4,3.5,30.15,SSW,203,0.0,3.0,40,0.00,,,0.00,Wunderground v.1.15,2013-02-19 02:09:00,
2013-02-18 21:14:00,24.4,3.5,30.15,SSW,203,0.0,1.0,40,0.00,,,0.00,Wunderground v.1.15,2013-02-19 02:14:00,
2013-02-18 21:19:00,24.3,3.4,30.15,SSW,203,0.0,1.0,40,0.00,,,0.00,Wunderground v.1.15,2013-02-19 02:19:00,
2013-02-18 21:24:00,24.1,3.8,30.15,SSW,203,0.0,1.0,41,0.00,,,0.00,Wunderground v.1.15,2013-02-19 02:24:00,
2013-02-18 21:29:00,24.1,3.2,30.15,WSW,238,0.0,2.0,40,0.00,,,0.00,Wunderground v.1.15,2013-02-19 02:29:00,
2013-02-18 21:35:00,24.0,3.7,30.15,WSW,238,0.0,2.0,41,0.00,,,0.00,Wunderground v.1.15,2013-02-19 02:35:00,
2013-02-18 21:40:00,23.9,3.6,30.14,WSW,238,0.0,0.0,41,0.00,,,0.00,Wunderground v.1.15,2013-02-19 02:40:00,
2013-02-18 21:45:00,23.7,4.4,30.15,WSW,238,0.0,1.0,43,0.00,,,0.00,Wunderground v.1.15,2013-02-19 02:45:00,
2013-02-18 21:50:00,23.6,4.3,30.15,WSW,238,1.0,2.0,43,0.00,,,0.00,Wunderground v.1.15,2013-02-19 02:50:00,
2013-02-18 21:55:00,23.5,4.8,30.15,WSW,238,0.0,2.0,44,0.00,,,0.00,Wunderground v.1.15,2013-02-19 02:55:00,
2013-02-18 22:00:00,23.3,4.6,30.15,WSW,238,0.0,0.0,44,0.00,,,0.00,Wunderground v.1.15,2013-02-19 03:00:00,
2013-02-18 22:05:00,23.1,3.9,30.15,WSW,238,0.0,1.0,43,0.00,,,0.00,Wunderground v.1.15,2013-02-19 03:05:00,
2013-02-18 22:11:00,23.0,4.3,30.15,WSW,238,0.0,0.0,44,0.00,,,0.00,Wunderground v.1.15,2013-02-19 03:11:00,
2013-02-18 22:16:00,23.0,3.8,30.15,WSW,238,0.0,1.0,43,0.00,,,0.00,Wunderground v.1.15,2013-02-19 03:16:00,
2013-02-18 22:21:00,22.8,3.6,30.15,WSW,238,0.0,0.0,43,0.00,,,0.00,Wunderground v.1.15,2013-02-19 03:21:00,
2013-02-18 22:26:00,22.8,4.6,30.15,WSW,237,0.0,1.0,45,0.00,,,0.00,Wunderground v.1.15,2013-02-19 03:26:00,
2013-02-18 22:31:00,22.7,4.0,30.16,WSW,237,0.0,0.0,44,0.00,,,0.00,Wunderground v.1.15,2013-02-19 03:31:00,
2013-02-18 22:36:00,22.6,4.9,30.16,WSW,237,0.0,1.0,46,0.00,,,0.00,Wunderground v.1.15,2013-02-19 03:36:00,
2013-02-18 22:42:00,22.5,3.8,30.17,WSW,237,0.0,1.0,44,0.00,,,0.00,Wunderground v.1.15,2013-02-19 03:42:00,
2013-02-18 22:47:00,22.6,4.4,30.17,SW,236,1.0,1.0,45,0.00,,,0.00,Wunderground v.1.15,2013-02-19 03:47:00,
2013-02-18 22:52:00,22.6,4.4,30.17,SW,236,0.0,0.0,45,0.00,,,0.00,Wunderground v.1.15,2013-02-19 03:52:00,
2013-02-18 22:58:00,22.5,4.3,30.17,SW,236,0.0,1.0,45,0.00,,,0.00,Wunderground v.1.15,2013-02-19 03:58:00,
2013-02-18 23:03:00,22.5,4.8,30.16,SW,236,0.0,0.0,46,0.00,,,0.00,Wunderground v.1.15,2013-02-19 04:03:00,
2013-02-18 23:08:00,22.4,4.7,30.16,SW,236,0.0,0.0,46,0.00,,,0.00,Wunderground v.1.15,2013-02-19 04:08:00,
2013-02-18 23:13:00,22.5,4.8,30.16,SW,236,0.0,0.0,46,0.00,,,0.00,Wunderground v.1.15,2013-02-19 04:13:00,
2013-02-18 23:18:00,22.5,4.3,30.17,SW,236,0.0,1.0,45,0.00,,,0.00,Wunderground v.1.15,2013-02-19 04:18:00,
2013-02-18 23:23:00,22.5,4.8,30.17,SW,236,0.0,0.0,46,0.00,,,0.00,Wunderground v.1.15,2013-02-19 04:23:00,
2013-02-18 23:28:00,22.5,4.8,30.17,SW,236,1.0,1.0,46,0.00,,,0.00,Wunderground v.1.15,2013-02-19 04:28:00,
2013-02-18 23:33:00,22.5,4.3,30.16,SW,216,0.0,1.0,45,0.00,,,0.00,Wunderground v.1.15,2013-02-19 04:33:00,
2013-02-18 23:39:00,22.5,5.3,30.16,SW,216,0.0,1.0,47,0.00,,,0.00,Wunderground v.1.15,2013-02-19 04:39:00,
2013-02-18 23:44:00,22.4,5.6,30.16,SW,216,0.0,1.0,48,0.00,,,0.00,Wunderground v.1.15,2013-02-19 04:44:00,
2013-02-18 23:49:00,22.3,5.1,30.16,SW,216,0.0,1.0,47,0.00,,,0.00,Wunderground v.1.15,2013-02-19 04:49:00,
2013-02-18 23:54:00,22.4,6.1,30.17,SW,216,1.0,1.0,49,0.00,,,0.00,Wunderground v.1.15,2013-02-19 04:54:00,
2013-02-18 23:59:00,22.3,5.1,30.17,SW,216,0.0,1.0,47,0.00,,,0.00,Wunderground v.1.15,2013-02-19 04:59:00,